Change the Weather History Date:

Thursday, June 27, 2013

  Actual Average Record
Temperature  
Mean Temperature 69 °F -  
Max Temperature 78 °F 78 °F - ()
Min Temperature 60 °F 62 °F - ()
Cooling Degree Days 4    
Growing Degree Days 19 (Base 50)    
Moisture  
Dew Point 60 °F    
Average Humidity 71    
Maximum Humidity 94    
Minimum Humidity 41    
Precipitation  
Precipitation 0.00 in 0.04 in - ()
Sea Level Pressure  
Sea Level Pressure 29.98 in    
Wind  
Wind Speed 6 mph ()    
Max Wind Speed 14 mph    
Max Gust Speed -    
Visibility 7.4 miles    
Events      
T = Trace of Precipitation, MM = Missing Value Source: Averaged Metar Reports

Daily Weather History Graph

Daily Weather History Graph

Search for Another Location

Airport or City:

Trip Planner

Search our weather history database for the weather conditions in past years. The results will help you decide how hot, cold, wet, or windy it might be!

Date:

Astronomy

Jun. 27, 2013 Rise Set
Actual Time 6:46 AM AEST 5:53 PM AEST
Civil Twilight 6:22 AM AEST 6:17 PM AEST
Nautical Twilight 5:55 AM AEST 6:44 PM AEST
Astronomical Twilight 5:28 AM AEST 7:11 PM AEST
Moon 9:56 PM AEST (6/27) 9:47 AM AEST (6/27)
Length of Visible Light 11h 54m
Length of Day
11h 07m
Waning Gibbous, 82% of the Moon is Illuminated
Jun 27
Waning Gibbous
Jun 30
Last Quarter
Jul 8
New
Jul 16
First Quarter
Jul 23
Full

Hourly Weather History & Observations

Time (AEST) Temp. Dew Point Humidity Pressure Visibility Wind Dir Wind Speed Gust Speed Precip Events Conditions
12:00 AM 66 °F 60 °F 75% 30.01 in - SSE 4.6 mph - -  
12:00 AM 66.2 °F 60.8 °F 83% 30.01 in - SSE 4.6 mph - N/A   Clear
12:30 AM 64.4 °F 60.8 °F 88% 30.01 in - SSE 5.8 mph - N/A   Clear
1:00 AM 65 °F 60 °F 77% 30.00 in - SSE 5.8 mph - -  
1:00 AM 64.4 °F 59.0 °F 83% 29.98 in - SSE 5.8 mph - N/A   Clear
1:30 AM 66.2 °F 59.0 °F 78% 29.98 in - SE 6.9 mph - N/A   Clear
2:00 AM 64.4 °F 59.0 °F 83% 29.98 in - SSE 6.9 mph - N/A   Clear
2:30 AM 64.4 °F 60.8 °F 88% 29.98 in - South 5.8 mph - N/A   Clear
3:00 AM 63 °F 60 °F 86% 29.98 in - SSE 4.6 mph - -  
3:00 AM 62.6 °F 60.8 °F 94% 29.98 in - SSE 4.6 mph - N/A   Clear
3:30 AM 64.4 °F 59.0 °F 83% 29.98 in - SSE 10.4 mph - N/A   Clear
4:00 AM 64 °F 60 °F 81% 29.97 in - SSE 8.1 mph - -  
4:00 AM 64.4 °F 59.0 °F 83% 29.95 in 6.2 mi SSE 8.1 mph - N/A   Partly Cloudy
4:30 AM 62.6 °F 59.0 °F 88% 29.95 in 6.2 mi SW 4.6 mph - N/A   Partly Cloudy
5:00 AM 60.8 °F 59.0 °F 94% 29.95 in 6.2 mi West 3.5 mph - N/A   Partly Cloudy
5:30 AM 62.6 °F 59.0 °F 88% 29.98 in - WSW 3.5 mph - N/A   Clear
6:00 AM 61 °F 59 °F 90% 29.98 in 19 mi WSW 4.6 mph - -   Partly Cloudy
6:00 AM 60.8 °F 59.0 °F 94% 29.98 in 6.2 mi WSW 4.6 mph - N/A   Partly Cloudy
6:30 AM 64.4 °F 59.0 °F 83% 29.98 in 6.2 mi SW 3.5 mph - N/A   Partly Cloudy
7:00 AM 62 °F 59 °F 87% 30.00 in - West 5.8 mph - -  
7:00 AM 60.8 °F 59.0 °F 94% 29.98 in 6.2 mi West 5.8 mph - N/A   Partly Cloudy
7:30 AM 62.6 °F 59.0 °F 88% 29.98 in 6.2 mi WNW 5.8 mph - N/A   Partly Cloudy
8:00 AM 66.2 °F 60.8 °F 83% 30.01 in 6.2 mi WNW 3.5 mph - N/A   Partly Cloudy
8:30 AM 68.0 °F 59.0 °F 73% 30.01 in 6.2 mi SSW 3.5 mph - N/A   Partly Cloudy
9:00 AM 70 °F 60 °F 61% 30.01 in 19 mi SE 11.5 mph - -   Partly Cloudy
9:00 AM 69.8 °F 59.0 °F 68% 30.01 in 6.2 mi SE 11.5 mph - N/A   Partly Cloudy
9:30 AM 71.6 °F 60.8 °F 69% 30.01 in 6.2 mi SE 11.5 mph - N/A   Partly Cloudy
10:00 AM 74 °F 60 °F 51% 30.03 in - South 9.2 mph - -  
10:00 AM 73.4 °F 59.0 °F 61% 30.01 in 6.2 mi South 9.2 mph - N/A   Partly Cloudy
10:30 AM 73.4 °F 59.0 °F 61% 30.01 in 6.2 mi South 9.2 mph - N/A   Partly Cloudy
11:00 AM 75.2 °F 59.0 °F 57% 30.01 in 6.2 mi SSE 9.2 mph - N/A   Partly Cloudy
11:30 AM 77.0 °F 59.0 °F 54% 29.98 in 6.2 mi SE 11.5 mph - N/A   Partly Cloudy
12:00 PM 77 °F 58 °F 43% 29.98 in 19 mi SE 9.2 mph - -   Partly Cloudy
12:00 PM 77.0 °F 59.0 °F 54% 29.98 in 6.2 mi SE 9.2 mph - N/A   Partly Cloudy
12:30 PM 77.0 °F 57.2 °F 50% 29.95 in 6.2 mi ESE 9.2 mph - N/A   Partly Cloudy
1:00 PM 78 °F 59 °F 41% 29.96 in - East 9.2 mph - -  
1:00 PM 77.0 °F 59.0 °F 54% 29.95 in 6.2 mi East 9.2 mph - N/A   Scattered Clouds
1:30 PM 77.0 °F 59.0 °F 54% 29.95 in 6.2 mi East 10.4 mph - N/A   Scattered Clouds
2:00 PM 77.0 °F 59.0 °F 54% 29.92 in 6.2 mi ENE 13.8 mph - N/A   Scattered Clouds
2:30 PM 77.0 °F 59.0 °F 54% 29.92 in 6.2 mi ENE 11.5 mph - N/A   Scattered Clouds
3:00 PM 75 °F 60 °F 49% 29.92 in 19 mi ENE 10.4 mph - -   Partly Cloudy
3:00 PM 75.2 °F 59.0 °F 57% 29.92 in 6.2 mi ENE 10.4 mph - N/A   Mostly Cloudy
3:30 PM 75.2 °F 59.0 °F 57% 29.92 in 6.2 mi East 10.4 mph - N/A   Mostly Cloudy
4:00 PM 74 °F 60 °F 52% 29.93 in - ESE 9.2 mph - -  
4:00 PM 73.4 °F 60.8 °F 65% 29.92 in 6.2 mi ESE 9.2 mph - N/A   Mostly Cloudy
4:30 PM 73.4 °F 60.8 °F 65% 29.92 in 6.2 mi SE 8.1 mph - N/A   Mostly Cloudy
5:00 PM 73.4 °F 60.8 °F 65% 29.92 in 6.2 mi ESE 6.9 mph - N/A   Mostly Cloudy
5:30 PM 71.6 °F 62.6 °F 73% 29.95 in 6.2 mi SSE 6.9 mph - N/A   Mostly Cloudy
6:00 PM 72 °F 62 °F 62% 29.95 in - SSE 4.6 mph - -   Overcast
6:00 PM 71.6 °F 62.6 °F 73% 29.95 in 6.2 mi SSE 4.6 mph - N/A   Mostly Cloudy
6:30 PM 71.6 °F 62.6 °F 73% 29.95 in 6.2 mi South 5.8 mph - N/A   Overcast
7:00 PM 71 °F 62 °F 67% 29.98 in - South 6.9 mph - -  
7:00 PM 71.6 °F 62.6 °F 73% 29.98 in 6.2 mi South 6.9 mph - N/A   Mostly Cloudy
7:30 PM 71.6 °F 60.8 °F 69% 29.98 in 6.2 mi South 6.9 mph - N/A   Mostly Cloudy
8:00 PM 71.6 °F 60.8 °F 69% 29.98 in 6.2 mi South 6.9 mph - N/A   Mostly Cloudy
8:30 PM 71.6 °F 60.8 °F 69% 29.98 in 6.2 mi South 8.1 mph - N/A   Mostly Cloudy
9:00 PM 72 °F 61 °F 61% 30.00 in - South 8.1 mph - -   Overcast
9:00 PM 71.6 °F 60.8 °F 69% 29.98 in 6.2 mi South 8.1 mph - N/A   Overcast
9:30 PM 71.6 °F 60.8 °F 69% 30.01 in 6.2 mi South 6.9 mph - N/A   Mostly Cloudy
10:00 PM 70 °F 61 °F 66% 30.01 in - South 5.8 mph - -  
10:00 PM 69.8 °F 60.8 °F 73% 30.01 in 6.2 mi South 5.8 mph - N/A   Mostly Cloudy
10:30 PM 68.0 °F 60.8 °F 78% 30.01 in 6.2 mi SSE 4.6 mph - N/A   Partly Cloudy
11:00 PM 69.8 °F 60.8 °F 73% 30.01 in 6.2 mi South 5.8 mph - N/A   Partly Cloudy
11:30 PM 68.0 °F 60.8 °F 78% 29.98 in 6.2 mi SSE 5.8 mph - N/A   Partly Cloudy